Flag for Brazil Weather past 2 weeks in Rio de Janeiro, Rio de Janeiro, Brazil

Now
79 °F

Haze.


Feels Like: 81 °F
Forecast: 69 / 82 °F
Wind: 6 mph from North

Location: Rio De Janeiro Airport

Current Time: May 26, 2015 at 11:52:55 AM

Latest Report: May 26, 2015 at 11:00 AM


Visibility: 3 mi

Pressure: 30.07 "Hg

Humidity: 74%

Dew point: 70 °F

Location of Rio de JaneiroLocation

Historic Weather in Rio de Janeiro — Graph

°F

Rio de Janeiro temperature yesterday

Maximum temperature yesterday: 82 °F (at 1:00 PM)
Minimum temperature yesterday: 70 °F (at 6:00 AM)
Average temperature yesterday: 76 °F

Past Weeks' High & Low Weather Summary

 TemperatureHumidityPressure
High84 °F (May 11, 11:00 AM)94% (May 12, 6:00 AM)30.27 "Hg (May 12, 6:00 AM)
Low66 °F (May 15, 6:00 AM)48% (May 11, 11:00 AM)29.77 "Hg (May 11, 1:00 PM)
Average74 °F76%30.11 "Hg
* Reported May 11 11:00 AM — May 26 11:00 AM, Rio de Janeiro, Weather by CustomWeather, © 2015

Note: Actual official high and low records may vary slightly from our data, if they occured in-between our weather recording intervals... More about our weather records

Advertising

Rio de Janeiro weather history for previous 24 hours

 ConditionsComfort  
Time TempWeatherWind HumidityBarometerVisibility
11:00 AM
Tue, May 26
79 °FHaze.6 mph74%30.07 "Hg3 mi
10:00 AM75 °FFog.5 mph83%30.09 "Hg3 mi
9:00 AM73 °FFog.5 mph89%30.09 "Hg3 mi
8:00 AM72 °FFog.3 mph88%30.07 "Hg3 mi
7:00 AM70 °FClear.2 mph94%30.04 "Hg5 mi
6:00 AM68 °FSunny.1 mph94%30.04 "Hg10 mi
11:00 PM
Mon, May 25
70 °FClear.2 mph88%30.01 "Hg10 mi
10:00 PM70 °FClear.7 mph83%30.01 "Hg10 mi
9:00 PM70 °FClear.3 mph83%30.01 "Hg10 mi
8:00 PM75 °FClear.7 mph65%29.98 "Hg10 mi
7:00 PM79 °FClear.8 mph58%29.98 "Hg10 mi
6:00 PM77 °FClear.10 mph61%29.95 "Hg10 mi
5:00 PM79 °FClear.8 mph65%29.92 "Hg10 mi
4:00 PM81 °FSunny.6 mph62%29.92 "Hg10 mi
3:00 PM81 °FSunny.7 mph58%29.92 "Hg10 mi
2:00 PM81 °FSunny.6 mph66%29.95 "Hg10 mi
1:00 PM82 °FSunny.5 mph66%29.95 "Hg10 mi
12:00 PM79 °FSunny.6 mph74%29.98 "Hg10 mi
11:00 AM79 °FSunny.6 mph70%30.01 "Hg10 mi
Weather by CustomWeather, © 2015

See weather overviewHow to use our weather pages